Location: Grasslands National Park East Block
(49.0708°N, 106.5295°W)
Time: 01:15:02
(UTC-06:00)

Vanguard 1 Rocket - Pass Details

Date: 28 September 2019
Orbit: 650 x 4226 km, 34.3° (Epoch: 20 October)

Event Time Altitude Azimuth Distance (km) Brightness Sun altitude
Rises 18:26:55 0° 250° (WSW) 8,466 14.4 3.2°
Reaches altitude 10° 18:33:12 10° 246° (WSW) 7,392 13.7 2.2°
Maximum altitude 18:56:03 50° 181° (S) 3,851 10.6 -1.6°
Drops below altitude 10° 19:09:59 10° 112° (ESE) 4,733 10.5 -3.9°
Enters shadow 19:12:12 - 108° (ESE) 5,184 10.6 -4.2°
Sets 19:12:59 0° 106° (ESE) 5,356 - -4.4°
